Wind_Speed
19 19 19 19 20 20 20 20 20 20 21 21 22 21 21 22 21 21 20 21 21 21 21 21 21 21 22 22 22 22 23 23 23 23 23 24 24 24 24 24 24 24 23 23
20 19 19 20 20 21 21 20 21 21 22 22 22 22 22 22 21 21 21 21 22 21 21 21 21 21 22 22 22 22 22 23 23 23 23 23 24 24 24 24 24 24 23 23
21 20 20 20 21 21 22 22 21 21 22 22 22 22 22 22 21 21 21 21 22 22 22 21 21 21 22 22 22 22 22 23 24 24 24 24 24 23 24 24 24 24 23 23
22 21 21 21 21 21 22 22 21 21 22 23 24 23 22 21 21 21 21 21 21 21 21 21 21 22 22 22 23 23 23 24 24 24 24 25 24 24 24 25 25 25 24 24
22 22 22 21 21 22 22 22 22 22 22 23 24 23 22 22 22 22 22 22 21 21 22 22 22 23 23 23 23 23 23 23 24 25 25 25 24 24 24 25 26 26 26 25
22 23 23 22 21 22 23 24 22 23 23 23 24 24 23 23 23 23 23 23 22 22 23 23 23 23 23 24 24 24 24 24 24 25 25 26 26 26 26 26 27 27 27 27
23 23 24 23 23 23 24 24 24 24 24 24 25 25 25 24 24 24 24 23 23 23 23 23 24 24 24 24 24 24 25 25 25 25 26 26 27 27 28 28 28 28 27 27
24 24 25 24 25 24 24 24 24 24 25 26 26 26 25 25 25 24 25 25 24 24 23 24 24 25 25 25 25 25 25 25 25 25 26 27 28 28 28 28 27 28 27 27
25 25 25 25 25 25 25 24 24 24 25 26 26 26 26 26 26 25 25 25 25 25 25 25 26 26 26 26 26 26 26 26 25 26 27 28 28 29 29 29 29 28 29 29
25 25 26 27 26 26 26 26 26 26 26 26 27 27 27 27 27 27 26 26 25 25 26 26 27 27 27 27 27 27 27 27 27 28 28 28 29 29 29 29 30 29 29 29
26 26 26 27 27 27 27 27 28 28 28 28 28 27 27 28 28 28 28 28 27 27 27 27 28 28 28 28 29 29 29 29 29 29 29 29 29 29 30 30 30 30 31 31
26 27 27 27 27 28 28 28 29 29 29 29 30 29 29 29 29 29 29 29 30 30 30 30 30 30 30 30 30 30 30 30 31 31 31 30 30 30 30 31 31 32 32 33
26 26 27 27 28 28 28 29 30 30 30 30 30 30 30 31 31 31 31 31 31 31 31 31 31 31 31 31 31 31 32 32 32 32 32 32 32 32 31 31 32 32 33 33
27 27 26 27 27 28 28 28 29 30 30 30 31 31 31 31 32 32 31 32 32 32 32 32 32 32 32 32 32 33 33 33 32 32 32 32 32 32 32 32 32 32 33 33
26 27 27 27 27 27 28 28 29 30 30 31 31 31 31 31 32 32 32 32 32 32 32 33 33 33 33 33 33 33 33 33 33 33 32 32 32 32 32 32 32 32 32 32
26 26 26 26 26 27 27 28 28 29 29 30 31 31 32 32 32 32 32 32 33 33 33 33 33 33 34 33 33 33 33 32 33 33 32 32 32 32 32 32 32 31 31 32
25 25 25 26 27 27 27 27 28 29 29 30 30 31 31 32 32 32 33 33 34 34 34 34 33 34 34 33 33 33 33 33 33 33 32 33 33 33 32 32 32 32 32 33
25 25 26 26 27 27 27 27 28 28 28 29 29 30 30 31 31 32 33 33 33 33 33 33 33 34 33 33 33 33 33 33 33 33 33 33 33 33 33 33 32 33 34 35
24 25 26 27 27 27 27 27 27 27 28 28 28 29 29 29 30 30 31 31 32 32 32 33 33 33 33 33 33 33 33 33 33 34 34 34 34 34 34 33 33 33 34 34
25 26 26 27 27 27 27 27 27 27 27 28 28 28 29 30 30 30 30 30 31 31 31 32 33 33 34 34 33 33 33 33 33 33 33 34 34 34 33 34 33 34 34 34
25 25 26 26 26 26 26 26 27 27 27 27 27 27 28 29 29 30 30 30 31 31 31 31 32 33 33 33 33 33 32 32 33 33 33 33 33 33 32 33 33 33 33 34
26 26 26 26 26 26 26 27 27 28 28 28 28 27 27 27 28 29 29 29 30 31 31 32 32 32 31 31 31 31 31 31 32 32 32 32 32 32 32 32 33 33 34 34
26 27 27 27 27 27 27 27 27 28 28 28 28 28 28 28 28 28 28 29 29 30 30 31 30 30 30 30 30 30 31 31 31 32 32 32 32 32 33 33 33 33 34 34
27 27 28 28 28 28 28 28 28 28 28 28 28 28 29 29 29 29 29 29 29 29 30 30 30 30 30 30 30 30 31 31 32 32 32 32 32 32 33 33 33 33 34 34
28 28 27 28 28 28 28 28 28 28 28 29 29 29 29 28 28 28 29 29 29 29 29 30 30 30 30 30 31 31 31 31 31 31 31 31 32 32 32 32 33 33 34 33
27 27 27 27 27 28 28 28 28 28 28 28 28 28 28 28 28 28 28 28 29 29 29 30 30 30 30 30 30 30 31 31 31 31 31 31 31 31 32 32 33 33 33 33
27 27 28 28 28 28 28 28 28 28 28 28 28 28 28 28 28 28 29 29 29 29 30 30 30 30 30 30 31 31 31 32 32 32 32 31 31 31 32 32 32 32 32 32
Wind_Direction
248 249 250 255 258 256 255 259 262 264 264 268 271 274 276 279 281 282 281 279 278 278 278 277 276 276 277 277 276 277 275 273 273 274 273 271 270 270 269 269 273 274 276 276
249 250 250 255 256 258 259 259 261 264 265 268 270 272 274 277 279 280 280 279 279 278 277 276 277 277 277 278 279 279 277 275 274 274 274 273 271 270 269 269 273 274 275 274
252 252 253 256 257 259 260 258 259 262 264 265 267 270 272 275 277 279 280 279 278 279 278 277 277 278 279 280 280 279 278 277 275 274 274 273 272 272 271 271 273 274 275 273
255 257 259 259 258 260 261 261 260 262 264 265 266 268 271 275 277 279 279 280 280 279 279 278 278 279 280 281 281 281 281 279 277 274 276 274 273 272 271 270 272 274 273 273
256 258 262 262 259 260 262 262 262 264 265 267 266 267 269 272 276 277 277 279 279 280 280 280 280 280 281 281 281 282 281 279 277 275 274 273 274 273 272 271 272 272 273 273
256 258 261 263 261 261 263 264 264 265 266 268 269 268 268 271 274 275 277 278 279 280 281 282 282 283 283 282 282 284 283 281 280 277 274 274 274 274 274 271 271 271 271 272
256 258 261 263 262 263 264 266 266 267 267 269 271 271 271 272 274 274 276 278 278 279 281 282 283 284 283 284 284 285 284 282 281 277 275 275 274 274 273 272 270 270 269 269
257 260 261 262 262 263 266 267 268 270 270 271 271 272 273 273 273 274 276 277 278 278 280 282 283 284 284 285 286 286 285 284 283 280 278 277 275 273 274 273 270 269 270 271
257 260 263 262 263 263 265 268 271 271 270 270 271 272 273 272 273 274 276 277 277 277 279 281 283 284 284 285 285 285 284 283 283 282 280 279 277 276 275 274 271 270 269 271
259 259 261 263 265 264 263 265 268 270 272 271 271 270 271 271 272 272 274 275 276 277 278 280 282 283 284 284 284 284 283 281 282 282 281 280 278 277 276 275 273 270 270 271
260 261 262 264 265 266 265 265 266 269 271 272 272 272 271 270 271 272 272 273 275 277 279 280 281 281 281 282 284 284 283 282 283 282 282 281 280 278 276 276 275 272 271 271
261 261 263 265 266 266 266 266 267 269 272 273 272 272 271 271 270 271 272 273 275 276 278 279 280 280 281 283 284 284 284 284 283 282 281 280 280 279 276 275 275 274 272 272
263 263 264 265 266 267 267 267 268 269 271 274 274 273 273 273 273 273 273 273 274 276 277 279 279 280 281 282 284 284 284 284 283 283 282 280 280 279 277 274 276 276 275 274
265 266 266 266 268 269 269 268 269 271 272 273 274 273 274 274 274 274 274 274 275 276 277 278 279 280 281 283 284 284 284 283 283 283 282 281 279 278 277 276 275 275 275 275
265 267 269 269 271 272 272 272 272 272 272 273 274 274 274 273 273 273 274 274 274 276 277 278 279 279 280 282 283 283 283 283 282 282 281 281 280 278 278 278 277 276 275 275
266 268 270 272 273 274 274 275 276 275 273 273 274 274 273 273 273 273 274 275 275 277 278 278 279 280 281 281 282 283 283 282 281 281 281 282 281 280 280 278 278 278 275 275
268 270 271 273 275 276 277 278 278 278 276 276 275 274 273 273 273 273 274 275 276 278 279 280 280 282 282 282 282 282 282 282 282 282 282 282 281 280 279 278 278 278 275 275
270 271 273 275 277 278 279 280 280 280 279 277 276 275 274 274 274 274 275 276 277 277 278 279 280 281 281 281 282 282 282 281 281 281 281 281 281 280 279 279 279 277 275 275
272 272 274 276 278 280 281 282 282 282 280 278 278 278 277 278 278 278 278 278 277 277 278 278 279 280 280 280 281 282 282 281 281 281 280 280 281 281 280 279 278 277 277 276
273 274 275 277 278 279 281 282 283 283 282 282 281 280 280 279 280 281 280 279 278 279 279 279 280 279 279 280 281 282 282 282 281 282 282 281 280 279 279 278 277 277 276 276
275 275 276 278 279 280 281 282 283 284 285 285 284 282 282 282 281 280 281 280 279 280 281 282 282 282 281 281 281 281 282 281 281 282 282 281 280 279 279 279 278 277 277 277
275 275 275 276 278 280 282 284 285 286 286 286 286 285 284 284 283 282 282 281 281 281 282 283 284 284 284 283 282 282 282 282 282 283 283 282 281 281 280 280 280 280 281 281
276 276 277 276 277 279 282 284 286 287 288 287 286 286 285 284 283 282 281 282 282 282 283 284 285 286 285 285 285 285 285 285 284 284 284 284 283 283 283 282 283 282 283 283
278 278 278 277 277 278 281 283 286 287 287 287 287 287 286 284 283 282 282 282 283 284 285 286 286 286 286 286 287 288 288 288 288 288 287 286 285 284 284 284 284 285 284 284
278 278 278 278 278 278 280 282 284 285 286 286 286 286 286 285 284 283 283 284 284 285 287 288 288 289 288 288 288 289 290 291 291 289 288 287 286 286 285 285 285 286 285 285
278 277 278 278 278 278 280 282 283 285 285 285 285 285 285 284 283 283 284 285 286 287 289 289 289 289 289 289 289 290 291 292 292 291 289 288 287 287 286 286 286 285 285 285
278 278 278 279 279 279 279 281 283 285 286 286 286 285 285 284 284 284 285 286 287 289 289 289 289 289 290 290 290 290 290 290 291 290 289 289 288 288 287 286 286 285 284 283
Height
5773 5775 5776 5777 5778 5780 5781 5782 5783 5784 5782 5782 5782 5781 5781 5781 5780 5779 5778 5777 5776 5776 5775 5775 5774 5774 5774 5773 5773 5773 5772 5773 5773 5772 5773 5773 5773 5774 5775 5775 5775 5776 5775 5775
5768 5769 5771 5772 5773 5775 5776 5776 5777 5777 5777 5777 5776 5776 5776 5775 5774 5774 5773 5772 5771 5770 5770 5770 5769 5769 5768 5768 5767 5767 5766 5766 5766 5766 5766 5766 5766 5767 5767 5768 5768 5768 5768 5768
5762 5764 5765 5767 5768 5768 5769 5769 5770 5771 5772 5771 5770 5770 5770 5769 5769 5768 5767 5766 5766 5765 5764 5764 5763 5763 5762 5762 5761 5760 5760 5759 5759 5759 5759 5759 5759 5759 5760 5761 5761 5761 5761 5761
5757 5759 5759 5762 5761 5762 5763 5764 5764 5765 5765 5764 5764 5764 5764 5763 5763 5762 5761 5760 5760 5759 5758 5758 5757 5757 5756 5755 5754 5754 5753 5753 5752 5752 5751 5752 5752 5752 5753 5753 5754 5754 5754 5754
5752 5752 5753 5755 5756 5756 5757 5757 5758 5758 5758 5758 5758 5758 5758 5757 5757 5756 5755 5755 5754 5753 5753 5752 5752 5751 5750 5749 5748 5747 5747 5746 5746 5745 5745 5745 5745 5745 5745 5746 5746 5746 5747 5747
5746 5747 5747 5750 5750 5750 5751 5751 5752 5752 5752 5752 5751 5752 5752 5751 5750 5750 5749 5748 5748 5747 5747 5746 5745 5744 5743 5743 5741 5741 5740 5739 5739 5738 5738 5738 5738 5738 5738 5738 5738 5738 5738 5739
5740 5740 5741 5743 5744 5744 5746 5746 5746 5745 5746 5745 5745 5745 5745 5745 5744 5743 5743 5742 5742 5741 5740 5740 5739 5738 5737 5736 5735 5734 5733 5732 5731 5731 5731 5730 5730 5730 5730 5730 5730 5730 5730 5731
5734 5735 5738 5737 5737 5739 5739 5738 5738 5739 5739 5739 5738 5738 5738 5737 5737 5737 5736 5736 5735 5734 5734 5733 5732 5731 5730 5729 5728 5727 5726 5725 5724 5723 5723 5722 5722 5722 5721 5721 5721 5721 5722 5722
5729 5730 5730 5730 5731 5731 5731 5732 5732 5732 5732 5731 5731 5731 5730 5730 5730 5730 5729 5729 5728 5728 5727 5726 5725 5724 5724 5723 5721 5719 5718 5717 5716 5716 5715 5714 5714 5713 5713 5712 5712 5712 5713 5713
5721 5722 5722 5723 5724 5724 5724 5725 5725 5725 5724 5724 5723 5723 5723 5722 5722 5722 5722 5721 5721 5720 5720 5719 5718 5717 5716 5715 5713 5712 5711 5710 5709 5708 5707 5706 5705 5704 5704 5703 5703 5703 5703 5704
5714 5716 5716 5716 5716 5717 5717 5717 5717 5717 5717 5716 5716 5716 5715 5715 5714 5714 5714 5713 5713 5713 5712 5711 5710 5709 5707 5706 5705 5704 5702 5701 5700 5699 5698 5696 5695 5694 5694 5694 5693 5694 5694 5694
5708 5709 5709 5709 5709 5709 5709 5709 5709 5709 5709 5708 5708 5708 5707 5707 5706 5706 5705 5705 5705 5704 5703 5702 5701 5700 5699 5698 5696 5695 5693 5692 5691 5689 5688 5687 5686 5685 5684 5684 5684 5684 5684 5684
5701 5700 5700 5701 5701 5701 5701 5701 5701 5701 5701 5700 5699 5699 5699 5698 5697 5697 5697 5697 5696 5695 5695 5694 5692 5691 5690 5689 5687 5686 5684 5682 5681 5679 5678 5677 5676 5675 5675 5674 5674 5674 5674 5674
5693 5693 5693 5693 5693 5693 5693 5692 5692 5692 5692 5691 5690 5690 5690 5689 5688 5688 5688 5687 5687 5686 5685 5684 5683 5682 5681 5679 5678 5676 5674 5672 5670 5669 5668 5667 5666 5665 5665 5664 5664 5664 5664 5664
5686 5686 5686 5686 5685 5685 5684 5684 5683 5683 5683 5682 5681 5681 5680 5680 5679 5679 5678 5678 5677 5676 5675 5674 5673 5672 5670 5669 5667 5666 5664 5662 5661 5659 5658 5657 5656 5655 5654 5654 5654 5654 5653 5653
5678 5678 5678 5678 5678 5677 5676 5675 5675 5674 5674 5673 5672 5671 5671 5670 5670 5669 5669 5668 5667 5666 5665 5664 5663 5661 5660 5658 5657 5656 5654 5652 5651 5649 5648 5647 5646 5645 5644 5644 5643 5643 5643 5643
5670 5671 5671 5670 5670 5669 5668 5667 5666 5665 5664 5664 5663 5662 5661 5661 5660 5660 5659 5658 5657 5656 5655 5654 5653 5651 5650 5649 5647 5646 5644 5643 5641 5639 5638 5637 5636 5635 5634 5634 5633 5633 5633 5633
5662 5662 5662 5662 5661 5661 5660 5659 5658 5657 5655 5655 5654 5653 5652 5652 5651 5650 5649 5648 5648 5646 5645 5644 5643 5642 5640 5639 5637 5636 5634 5633 5631 5630 5629 5628 5626 5625 5624 5623 5623 5623 5623 5623
5655 5655 5654 5654 5653 5653 5652 5651 5650 5648 5647 5646 5645 5644 5643 5642 5641 5640 5639 5638 5637 5637 5635 5634 5633 5631 5630 5629 5627 5626 5624 5623 5621 5620 5619 5617 5616 5615 5614 5613 5613 5613 5612 5612
5647 5647 5647 5646 5645 5644 5644 5642 5641 5640 5639 5637 5636 5635 5634 5633 5632 5631 5630 5629 5628 5627 5625 5624 5623 5621 5620 5618 5617 5616 5614 5613 5611 5610 5609 5607 5606 5605 5604 5603 5603 5602 5602 5602
5640 5639 5639 5638 5637 5636 5635 5634 5633 5632 5630 5629 5628 5626 5625 5624 5622 5621 5620 5620 5618 5617 5616 5615 5613 5611 5610 5608 5607 5605 5604 5603 5601 5600 5599 5597 5596 5595 5594 5593 5592 5592 5591 5591
5631 5631 5630 5630 5629 5628 5627 5626 5624 5623 5621 5620 5619 5617 5616 5615 5614 5612 5611 5610 5609 5608 5606 5605 5603 5601 5599 5598 5596 5595 5594 5592 5591 5590 5588 5587 5586 5585 5584 5583 5582 5581 5581 5580
5623 5622 5622 5621 5621 5620 5619 5617 5616 5614 5613 5611 5610 5609 5607 5606 5605 5604 5603 5601 5600 5598 5597 5595 5593 5591 5590 5588 5587 5585 5584 5582 5581 5579 5578 5577 5576 5575 5574 5573 5572 5571 5570 5569
5614 5613 5613 5612 5611 5611 5610 5608 5607 5605 5604 5603 5601 5600 5598 5597 5596 5594 5593 5592 5591 5589 5588 5586 5584 5582 5580 5579 5577 5576 5574 5572 5571 5569 5568 5566 5565 5564 5563 5562 5561 5560 5559 5558
5605 5605 5604 5603 5602 5602 5601 5600 5598 5597 5595 5594 5592 5590 5589 5588 5587 5585 5584 5583 5581 5580 5579 5577 5575 5573 5571 5569 5568 5566 5564 5562 5560 5559 5557 5556 5554 5553 5552 5551 5550 5549 5548 5547
5597 5596 5595 5594 5594 5593 5592 5591 5590 5588 5586 5585 5583 5582 5580 5579 5578 5576 5575 5574 5573 5571 5569 5568 5566 5564 5562 5560 5558 5556 5555 5553 5551 5549 5547 5546 5544 5543 5542 5540 5539 5538 5537 5536
5589 5588 5587 5586 5585 5584 5583 5582 5581 5579 5578 5576 5575 5573 5572 5570 5569 5568 5566 5565 5563 5562 5560 5558 5556 5554 5552 5550 5549 5547 5545 5543 5541 5539 5537 5536 5534 5533 5531 5530 5528 5527 5526 5525